| time (UTC) | temp F | wind direction | speed MPH | gust MPH | rain 1hr in | rain 24hr in | rain mn in | humidity % | barometer mb |
| 20260506185308 | 60 | 58 | 1.0 | 5.0 | 0.00 | 0.05 | 0.05 | 74 | 1014.3 |
| 20260506184808 | 60 | 336 | 6.0 | 10.0 | 0.00 | 0.05 | 0.05 | 73 | 1014.5 |
| 20260506183807 | 59 | 336 | 2.0 | 7.0 | 0.00 | 0.05 | 0.05 | 74 | 1014.1 |
| 20260506183308 | 59 | 336 | 2.0 | 9.0 | 0.00 | 0.05 | 0.05 | 75 | 1014.1 |
| 20260506182308 | 59 | 347 | 7.0 | 17.0 | 0.00 | 0.05 | 0.05 | 77 | 1013.5 |
| 20260506181809 | 58 | 296 | 9.0 | 12.0 | 0.00 | 0.05 | 0.05 | 76 | 1013.3 |
| 20260506181308 | 58 | 25 | 11.0 | 12.0 | 0.00 | 0.05 | 0.05 | 76 | 1013.5 |
| 20260506180808 | 58 | 356 | 7.0 | 13.0 | 0.00 | 0.05 | 0.05 | 77 | 1013.5 |
| 20260506180308 | 57 | 335 | 6.0 | 12.0 | 0.00 | 0.05 | 0.05 | 78 | 1013.5 |
| 20260506175808 | 56 | 28 | 10.0 | 16.0 | 0.00 | 0.05 | 0.05 | 78 | 1013.5 |
| 20260506175308 | 56 | 349 | 9.0 | 20.0 | 0.00 | 0.05 | 0.05 | 79 | 1013.5 |
| 20260506174808 | 56 | 343 | 10.0 | 13.0 | 0.00 | 0.05 | 0.05 | 78 | 1013.7 |
| 20260506174308 | 56 | 329 | 6.0 | 16.0 | 0.00 | 0.05 | 0.05 | 79 | 1013.9 |
| 20260506173808 | 56 | 326 | 11.0 | 10.0 | 0.00 | 0.05 | 0.05 | 79 | 1014.0 |
| 20260506173308 | 56 | 303 | 7.0 | 12.0 | 0.00 | 0.05 | 0.05 | 80 | 1014.1 |
| 20260506171808 | 55 | 44 | 3.0 | 10.0 | 0.00 | 0.05 | 0.05 | 83 | 1013.9 |
| 20260506171308 | 54 | 343 | 6.0 | 13.0 | 0.00 | 0.05 | 0.05 | 83 | 1013.9 |
| 20260506170808 | 54 | 336 | 5.0 | 9.0 | 0.00 | 0.05 | 0.05 | 83 | 1013.7 |
| 20260506170308 | 54 | 350 | 5.0 | 12.0 | 0.00 | 0.05 | 0.05 | 84 | 1013.6 |
| 20260506165808 | 54 | 333 | 9.0 | 12.0 | 0.00 | 0.05 | 0.05 | 85 | 1013.6 |
| 20260506165308 | 54 | 7 | 7.0 | 8.0 | 0.00 | 0.05 | 0.05 | 85 | 1013.4 |
| 20260506164808 | 53 | 346 | 3.0 | 10.0 | 0.00 | 0.05 | 0.05 | 85 | 1013.8 |
| 20260506164308 | 53 | 5 | 3.0 | 10.0 | 0.00 | 0.05 | 0.05 | 86 | 1013.7 |
| 20260506163808 | 53 | 318 | 5.0 | 8.0 | 0.00 | 0.05 | 0.05 | 86 | 1013.8 |
| 20260506163308 | 53 | 321 | 7.0 | 10.0 | 0.00 | 0.05 | 0.05 | 86 | 1013.7 |
| 20260506162808 | 53 | 334 | 5.0 | 10.0 | 0.00 | 0.05 | 0.05 | 86 | 1013.9 |
| 20260506162308 | 53 | 332 | 4.0 | 10.0 | 0.00 | 0.05 | 0.05 | 86 | 1014.0 |
| 20260506161308 | 53 | 343 | 3.0 | 9.0 | 0.00 | 0.05 | 0.05 | 87 | 1013.7 |
| 20260506160808 | 53 | 345 | 8.0 | 13.0 | 0.00 | 0.05 | 0.05 | 87 | 1013.6 |
| 20260506160308 | 53 | 311 | 6.0 | 15.0 | 0.01 | 0.05 | 0.05 | 87 | 1013.6 |
| 20260506155308 | 53 | 322 | 8.0 | 17.0 | 0.01 | 0.05 | 0.05 | 88 | 1013.0 |
| 20260506154809 | 53 | 350 | 9.0 | 12.0 | 0.02 | 0.05 | 0.05 | 89 | 1012.9 |
| 20260506154307 | 52 | 298 | 10.0 | 18.0 | 0.03 | 0.05 | 0.05 | 88 | 1012.8 |
| 20260506153807 | 52 | 322 | 10.0 | 20.0 | 0.05 | 0.05 | 0.05 | 88 | 1012.9 |
| 20260506153308 | 52 | 322 | 10.0 | 13.0 | 0.05 | 0.05 | 0.05 | 88 | 1013.2 |
| 20260506152808 | 52 | 341 | 5.0 | 12.0 | 0.05 | 0.05 | 0.05 | 89 | 1013.4 |
| 20260506152308 | 52 | 345 | 5.0 | 9.0 | 0.05 | 0.05 | 0.05 | 89 | 1013.8 |
| 20260506151809 | 52 | 354 | 1.0 | 6.0 | 0.05 | 0.05 | 0.05 | 89 | 1014.0 |
| 20260506151308 | 52 | 317 | 7.0 | 10.0 | 0.05 | 0.05 | 0.05 | 89 | 1013.8 |
| 20260506150808 | 52 | 354 | 5.0 | 6.0 | 0.05 | 0.05 | 0.05 | 89 | 1013.4 |
| 20260506150308 | 52 | 328 | 4.0 | 6.0 | 0.04 | 0.04 | 0.04 | 89 | 1013.7 |
| 20260506144808 | 52 | 333 | 5.0 | 7.0 | 0.03 | 0.03 | 0.03 | 87 | 1014.5 |
| 20260506144308 | 52 | 288 | 5.0 | 5.0 | 0.02 | 0.02 | 0.02 | 87 | 1015.4 |
| 20260506143808 | 52 | 6 | 1.0 | 2.0 | 0.00 | 0.00 | 0.00 | 86 | 1015.3 |
| 20260506142308 | 52 | 333 | 5.0 | 8.0 | 0.00 | 0.00 | 0.00 | 86 | 1014.7 |
| 20260506141807 | 52 | 17 | 5.0 | 10.0 | 0.00 | 0.00 | 0.00 | 86 | 1013.6 |
| 20260506141308 | 52 | 342 | 3.0 | 9.0 | 0.00 | 0.00 | 0.00 | 86 | 1013.0 |
| 20260506140808 | 52 | 342 | 4.0 | 10.0 | 0.00 | 0.00 | 0.00 | 86 | 1013.1 |
| 20260506140308 | 52 | 325 | 7.0 | 12.0 | 0.00 | 0.00 | 0.00 | 86 | 1013.2 |
| 20260506135807 | 52 | 329 | 6.0 | 7.0 | 0.00 | 0.00 | 0.00 | 86 | 1013.6 |
| 20260506135308 | 52 | 346 | 7.0 | 10.0 | 0.00 | 0.00 | 0.00 | 86 | 1013.5 |
| 20260506134808 | 52 | 318 | 7.0 | 9.0 | 0.00 | 0.00 | 0.00 | 86 | 1014.3 |
| 20260506134308 | 52 | 299 | 3.0 | 9.0 | 0.00 | 0.00 | 0.00 | 86 | 1014.1 |
| 20260506133808 | 52 | 323 | 6.0 | 9.0 | 0.00 | 0.00 | 0.00 | 86 | 1014.1 |
| 20260506133307 | 52 | 286 | 8.0 | 13.0 | 0.00 | 0.00 | 0.00 | 86 | 1013.9 |
| 20260506132808 | 52 | 303 | 4.0 | 8.0 | 0.00 | 0.00 | 0.00 | 86 | 1013.6 |
| 20260506132307 | 52 | 310 | 4.0 | 9.0 | 0.00 | 0.00 | 0.00 | 85 | 1013.2 |
| 20260506131808 | 52 | 323 | 2.0 | 9.0 | 0.00 | 0.00 | 0.00 | 85 | 1012.9 |
| 20260506131308 | 52 | 322 | 6.0 | 12.0 | 0.00 | 0.00 | 0.00 | 85 | 1012.9 |
| 20260506130809 | 52 | 4 | 8.0 | 13.0 | 0.00 | 0.00 | 0.00 | 85 | 1012.8 |
| 20260506130308 | 52 | 335 | 7.0 | 9.0 | 0.00 | 0.00 | 0.00 | 84 | 1012.7 |
| 20260506125807 | 52 | 10 | 6.0 | 9.0 | 0.00 | 0.00 | 0.00 | 84 | 1012.6 |
| 20260506125308 | 52 | 315 | 7.0 | 10.0 | 0.00 | 0.00 | 0.00 | 84 | 1012.4 |
| 20260506124808 | 52 | 349 | 6.0 | 10.0 | 0.00 | 0.00 | 0.00 | 84 | 1012.4 |
| 20260506124308 | 52 | 316 | 6.0 | 12.0 | 0.00 | 0.00 | 0.00 | 84 | 1012.1 |
| 20260506123807 | 52 | 5 | 7.0 | 16.0 | 0.00 | 0.00 | 0.00 | 83 | 1012.0 |
| 20260506123308 | 52 | 338 | 7.0 | 9.0 | 0.00 | 0.00 | 0.00 | 83 | 1012.0 |
| 20260506122308 | 53 | 309 | 6.0 | 10.0 | 0.00 | 0.00 | 0.00 | 81 | 1012.1 |
| 20260506121808 | 53 | 350 | 6.0 | 10.0 | 0.00 | 0.00 | 0.00 | 81 | 1012.0 |
| 20260506121308 | 53 | 309 | 5.0 | 10.0 | 0.00 | 0.00 | 0.00 | 81 | 1011.9 |
| 20260506120808 | 53 | 348 | 7.0 | 9.0 | 0.00 | 0.00 | 0.00 | 80 | 1011.9 |
| 20260506120308 | 53 | 357 | 7.0 | 10.0 | 0.00 | 0.00 | 0.00 | 80 | 1011.8 |
| 20260506115807 | 54 | 306 | 13.0 | 15.0 | 0.00 | 0.00 | 0.00 | 80 | 1011.8 |
| 20260506115308 | 54 | 23 | 7.0 | 9.0 | 0.00 | 0.00 | 0.00 | 79 | 1011.6 |
| 20260506114808 | 54 | 334 | 7.0 | 13.0 | 0.00 | 0.00 | 0.00 | 79 | 1011.8 |
| 20260506114307 | 54 | 320 | 7.0 | 12.0 | 0.00 | 0.00 | 0.00 | 79 | 1011.8 |
| 20260506113808 | 54 | 280 | 5.0 | 12.0 | 0.00 | 0.00 | 0.00 | 79 | 1011.6 |
| 20260506113308 | 54 | 348 | 10.0 | 15.0 | 0.00 | 0.00 | 0.00 | 79 | 1011.6 |
| 20260506112808 | 55 | 320 | 9.0 | 9.0 | 0.00 | 0.00 | 0.00 | 78 | 1011.4 |
| 20260506112307 | 55 | 320 | 5.0 | 9.0 | 0.00 | 0.00 | 0.00 | 78 | 1011.2 |
| 20260506111808 | 55 | 296 | 11.0 | 13.0 | 0.00 | 0.00 | 0.00 | 78 | 1011.2 |
| 20260506111307 | 55 | 332 | 7.0 | 12.0 | 0.00 | 0.00 | 0.00 | 78 | 1011.0 |
| 20260506110308 | 56 | 311 | 6.0 | 9.0 | 0.00 | 0.00 | 0.00 | 77 | 1010.8 |
| 20260506105808 | 56 | 332 | 2.0 | 9.0 | 0.00 | 0.00 | 0.00 | 77 | 1010.7 |
| 20260506105307 | 56 | 344 | 2.0 | 5.0 | 0.00 | 0.00 | 0.00 | 77 | 1010.5 |
| 20260506104808 | 56 | 303 | 7.0 | 12.0 | 0.00 | 0.00 | 0.00 | 77 | 1010.6 |
| 20260506104307 | 56 | 313 | 7.0 | 13.0 | 0.00 | 0.00 | 0.00 | 77 | 1010.4 |
| 20260506103308 | 57 | 314 | 9.0 | 13.0 | 0.00 | 0.00 | 0.00 | 77 | 1010.3 |
| 20260506102807 | 57 | 303 | 6.0 | 12.0 | 0.00 | 0.00 | 0.00 | 77 | 1010.3 |
| 20260506102308 | 57 | 322 | 6.0 | 7.0 | 0.00 | 0.00 | 0.00 | 77 | 1010.2 |
| 20260506101808 | 57 | 352 | 5.0 | 9.0 | 0.00 | 0.00 | 0.00 | 77 | 1010.1 |
| 20260506100807 | 57 | 341 | 3.0 | 7.0 | 0.00 | 0.00 | 0.00 | 77 | 1009.9 |
| 20260506100308 | 57 | 318 | 4.0 | 7.0 | 0.00 | 0.00 | 0.00 | 77 | 1009.9 |
| 20260506095808 | 57 | 355 | 4.0 | 10.0 | 0.00 | 0.00 | 0.00 | 77 | 1009.7 |
| 20260506094807 | 57 | 305 | 5.0 | 6.0 | 0.00 | 0.00 | 0.00 | 77 | 1009.5 |
| 20260506093808 | 57 | 336 | 2.0 | 3.0 | 0.00 | 0.00 | 0.00 | 77 | 1009.3 |
| 20260506093308 | 57 | 354 | 5.0 | 6.0 | 0.00 | 0.00 | 0.00 | 77 | 1009.3 |
| 20260506092808 | 57 | 324 | 4.0 | 12.0 | 0.00 | 0.00 | 0.00 | 78 | 1009.3 |
| 20260506092308 | 57 | 326 | 6.0 | 9.0 | 0.00 | 0.00 | 0.00 | 77 | 1009.4 |
| 20260506091808 | 57 | 335 | 4.0 | 6.0 | 0.00 | 0.00 | 0.00 | 77 | 1009.5 |
| 20260506091309 | 57 | 1 | 2.0 | 5.0 | 0.00 | 0.00 | 0.00 | 77 | 1009.3 |
| 20260506090807 | 57 | 8 | 3.0 | 6.0 | 0.00 | 0.00 | 0.00 | 78 | 1009.3 |
| 20260506090308 | 58 | 1 | 2.0 | 7.0 | 0.00 | 0.00 | 0.00 | 78 | 1009.4 |
| 20260506085807 | 58 | 320 | 5.0 | 7.0 | 0.00 | 0.00 | 0.00 | 78 | 1009.3 |
| 20260506085307 | 58 | 0 | 3.0 | 5.0 | 0.00 | 0.00 | 0.00 | 78 | 1009.3 |
| 20260506084807 | 58 | 355 | 1.0 | 5.0 | 0.00 | 0.00 | 0.00 | 79 | 1009.3 |
| 20260506084308 | 58 | 312 | 3.0 | 7.0 | 0.00 | 0.00 | 0.00 | 79 | 1009.2 |
| 20260506083808 | 58 | 349 | 5.0 | 7.0 | 0.00 | 0.00 | 0.00 | 79 | 1009.1 |
| 20260506083307 | 58 | 336 | 5.0 | 9.0 | 0.00 | 0.00 | 0.00 | 79 | 1009.0 |
| 20260506082808 | 58 | 1 | 6.0 | 9.0 | 0.00 | 0.00 | 0.00 | 79 | 1008.9 |
| 20260506082308 | 58 | 337 | 5.0 | 7.0 | 0.00 | 0.00 | 0.00 | 79 | 1008.9 |
| 20260506081807 | 58 | 334 | 3.0 | 9.0 | 0.00 | 0.00 | 0.00 | 79 | 1008.9 |
| 20260506081307 | 58 | 358 | 4.0 | 7.0 | 0.00 | 0.00 | 0.00 | 79 | 1008.8 |
| 20260506080808 | 58 | 2 | 4.0 | 9.0 | 0.00 | 0.00 | 0.00 | 79 | 1008.8 |
| 20260506073307 | 58 | 330 | 4.0 | 8.0 | 0.00 | 0.00 | 0.00 | 81 | 1008.9 |
| 20260506072807 | 58 | 343 | 5.0 | 7.0 | 0.00 | 0.00 | 0.00 | 82 | 1008.9 |
| 20260506070807 | 59 | 342 | 1.0 | 2.0 | 0.00 | 0.00 | 0.00 | 81 | 1008.4 |
| 20260506070308 | 59 | 319 | 1.0 | 3.0 | 0.00 | 0.00 | 0.00 | 81 | 1008.4 |
| 20260506061808 | 60 | 5 | 5.0 | 10.0 | 0.00 | 0.00 | 0.00 | 78 | 1008.2 |
| 20260506060808 | 61 | 326 | 5.0 | 14.0 | 0.00 | 0.00 | 0.00 | 77 | 1008.4 |
| 20260506060308 | 61 | 349 | 2.0 | 7.0 | 0.00 | 0.00 | 0.00 | 78 | 1008.4 |
| 20260506050816 | 62 | 357 | 5.0 | 13.0 | 0.00 | 0.00 | 0.00 | 76 | 1008.4 |
| 20260506050307 | 62 | 314 | 7.0 | 10.0 | 0.00 | 0.00 | 0.00 | 76 | 1008.4 |
| 20260506044807 | 62 | 323 | 5.0 | 10.0 | 0.00 | 0.00 | 0.00 | 76 | 1008.4 |
| 20260506044307 | 63 | 10 | 8.0 | 13.0 | 0.00 | 0.00 | 0.00 | 75 | 1008.3 |
| 20260506043807 | 63 | 317 | 5.0 | 10.0 | 0.00 | 0.00 | 0.00 | 75 | 1008.3 |
| 20260506043308 | 63 | 3 | 2.0 | 10.0 | 0.00 | 0.00 | 0.00 | 75 | 1008.1 |
| 20260506042307 | 63 | 340 | 8.0 | 15.0 | 0.00 | 0.00 | 0.00 | 75 | 1008.2 |
| 20260506041807 | 63 | 316 | 8.0 | 10.0 | 0.00 | 0.00 | 0.00 | 74 | 1008.2 |
| 20260506041308 | 64 | 315 | 4.0 | 7.0 | 0.00 | 0.00 | 0.00 | 74 | 1008.3 |
| 20260506035307 | 64 | 335 | 8.0 | 12.0 | 0.00 | 0.00 | 0.00 | 74 | 1008.3 |
| 20260506034307 | 64 | 25 | 6.0 | 12.0 | 0.00 | 0.00 | 0.00 | 74 | 1008.1 |
| 20260506033807 | 65 | 315 | 7.0 | 13.0 | 0.00 | 0.00 | 0.00 | 74 | 1008.1 |
| 20260506033307 | 65 | 330 | 7.0 | 9.0 | 0.00 | 0.00 | 0.00 | 74 | 1007.8 |
| 20260506032807 | 65 | 352 | 5.0 | 13.0 | 0.00 | 0.00 | 0.00 | 74 | 1007.5 |
| 20260506032307 | 65 | 326 | 6.0 | 16.0 | 0.00 | 0.00 | 0.00 | 74 | 1007.4 |
| 20260506031807 | 66 | 318 | 7.0 | 12.0 | 0.00 | 0.00 | 0.00 | 73 | 1007.4 |
| 20260506031307 | 66 | 327 | 5.0 | 9.0 | 0.00 | 0.00 | 0.00 | 74 | 1007.3 |
| 20260506030808 | 66 | 310 | 3.0 | 7.0 | 0.00 | 0.00 | 0.00 | 75 | 1007.3 |
| 20260506030308 | 66 | 338 | 3.0 | 7.0 | 0.00 | 0.00 | 0.00 | 74 | 1007.2 |
| 20260506025808 | 66 | 346 | 7.0 | 10.0 | 0.00 | 0.00 | 0.00 | 74 | 1006.9 |
| 20260506025307 | 66 | 316 | 3.0 | 9.0 | 0.00 | 0.00 | 0.00 | 74 | 1006.8 |
| 20260506024807 | 66 | 328 | 3.0 | 5.0 | 0.00 | 0.00 | 0.00 | 73 | 1006.7 |
| 20260506024307 | 66 | 332 | 3.0 | 6.0 | 0.00 | 0.00 | 0.00 | 73 | 1006.6 |
| 20260506023807 | 66 | 346 | 4.0 | 7.0 | 0.00 | 0.00 | 0.00 | 72 | 1006.3 |
| 20260506023307 | 66 | 355 | 5.0 | 7.0 | 0.00 | 0.00 | 0.00 | 72 | 1006.2 |
| 20260506022808 | 67 | 339 | 4.0 | 6.0 | 0.00 | 0.00 | 0.00 | 72 | 1006.4 |
| 20260506022307 | 67 | 336 | 2.0 | 6.0 | 0.00 | 0.00 | 0.00 | 71 | 1006.2 |
| 20260506021807 | 67 | 323 | 5.0 | 8.0 | 0.00 | 0.00 | 0.00 | 71 | 1006.1 |
| 20260506021307 | 67 | 346 | 7.0 | 9.0 | 0.00 | 0.00 | 0.00 | 70 | 1006.2 |
| 20260506020807 | 67 | 337 | 9.0 | 13.0 | 0.00 | 0.00 | 0.00 | 70 | 1006.1 |
| 20260506020307 | 68 | 315 | 10.0 | 15.0 | 0.00 | 0.00 | 0.00 | 70 | 1006.2 |
| 20260506015807 | 68 | 356 | 6.0 | 10.0 | 0.00 | 0.00 | 0.00 | 70 | 1006.0 |
| 20260506015307 | 69 | 312 | 7.0 | 9.0 | 0.00 | 0.00 | 0.00 | 70 | 1006.1 |
| 20260506014807 | 69 | 318 | 6.0 | 10.0 | 0.00 | 0.00 | 0.00 | 71 | 1005.8 |
| 20260506013808 | 69 | 328 | 4.0 | 5.0 | 0.00 | 0.00 | 0.00 | 71 | 1005.5 |
| 20260506013307 | 70 | 314 | 6.0 | 10.0 | 0.00 | 0.00 | 0.00 | 70 | 1005.3 |
| 20260506012808 | 70 | 314 | 5.0 | 9.0 | 0.00 | 0.00 | 0.00 | 70 | 1005.2 |
| 20260506012308 | 70 | 337 | 5.0 | 9.0 | 0.00 | 0.00 | 0.00 | 69 | 1005.0 |
| 20260506011807 | 71 | 331 | 7.0 | 9.0 | 0.00 | 0.00 | 0.00 | 69 | 1004.9 |
| 20260506011308 | 71 | 346 | 6.0 | 9.0 | 0.00 | 0.00 | 0.00 | 69 | 1004.6 |
| 20260506010807 | 71 | 319 | 2.0 | 7.0 | 0.00 | 0.00 | 0.00 | 68 | 1004.4 |
| 20260506010307 | 71 | 337 | 5.0 | 7.0 | 0.00 | 0.00 | 0.00 | 67 | 1004.4 |
| 20260506005807 | 72 | 344 | 6.0 | 9.0 | 0.00 | 0.00 | 0.00 | 67 | 1004.1 |
| 20260506005307 | 72 | 15 | 5.0 | 8.0 | 0.00 | 0.00 | 0.00 | 67 | 1004.3 |
| 20260506004807 | 72 | 341 | 4.0 | 7.0 | 0.00 | 0.00 | 0.00 | 67 | 1004.5 |
| 20260506004307 | 72 | 338 | 2.0 | 6.0 | 0.00 | 0.00 | 0.00 | 67 | 1004.3 |
| 20260506003807 | 73 | 348 | 4.0 | 9.0 | 0.00 | 0.00 | 0.00 | 66 | 1004.2 |
| 20260506003307 | 73 | 18 | 7.0 | 10.0 | 0.00 | 0.00 | 0.00 | 66 | 1004.0 |
| 20260506002807 | 73 | 312 | 5.0 | 9.0 | 0.00 | 0.00 | 0.00 | 66 | 1003.8 |
| 20260506002308 | 74 | 317 | 4.0 | 10.0 | 0.00 | 0.00 | 0.00 | 66 | 1003.8 |
| 20260506001808 | 74 | 321 | 5.0 | 9.0 | 0.00 | 0.00 | 0.00 | 65 | 1003.5 |
| 20260506001307 | 74 | 308 | 8.0 | 12.0 | 0.00 | 0.00 | 0.00 | 64 | 1003.8 |
| 20260506000807 | 75 | 28 | 5.0 | 10.0 | 0.00 | 0.00 | 0.00 | 64 | 1003.7 |
| 20260506000309 | 75 | 323 | 4.0 | 8.0 | 0.00 | 0.00 | 0.00 | 64 | 1003.5 |
| 20260505235807 | 75 | 356 | 9.0 | 15.0 | 0.00 | 0.00 | 0.00 | 64 | 1003.5 |
| 20260505234307 | 76 | 338 | 11.0 | 16.0 | 0.00 | 0.00 | 0.00 | 63 | 1003.5 |
| 20260505233307 | 77 | 315 | 11.0 | 15.0 | 0.00 | 0.00 | 0.00 | 62 | 1003.4 |
| 20260505232807 | 78 | 333 | 7.0 | 15.0 | 0.00 | 0.00 | 0.00 | 61 | 1003.4 |
| 20260505232307 | 79 | 308 | 12.0 | 16.0 | 0.00 | 0.00 | 0.00 | 59 | 1003.3 |
| 20260505231307 | 80 | 318 | 11.0 | 13.0 | 0.00 | 0.00 | 0.00 | 58 | 1003.2 |
| 20260505230808 | 80 | 2 | 7.0 | 15.0 | 0.00 | 0.00 | 0.00 | 60 | 1003.2 |
| 20260505230307 | 80 | 331 | 7.0 | 12.0 | 0.00 | 0.00 | 0.00 | 59 | 1003.1 |
| 20260505225807 | 81 | 2 | 6.0 | 16.0 | 0.00 | 0.00 | 0.00 | 58 | 1002.9 |
| 20260505225307 | 82 | 349 | 14.0 | 17.0 | 0.00 | 0.00 | 0.00 | 57 | 1003.1 |
| 20260505224807 | 83 | 11 | 6.0 | 10.0 | 0.00 | 0.00 | 0.00 | 58 | 1003.1 |
| 20260505224307 | 83 | 312 | 8.0 | 12.0 | 0.00 | 0.00 | 0.00 | 57 | 1002.8 |
| 20260505223807 | 84 | 346 | 7.0 | 15.0 | 0.00 | 0.00 | 0.00 | 57 | 1002.7 |
| 20260505223307 | 85 | 311 | 9.0 | 12.0 | 0.00 | 0.00 | 0.00 | 56 | 1002.6 |
| 20260505222307 | 85 | 341 | 6.0 | 10.0 | 0.00 | 0.00 | 0.00 | 54 | 1002.5 |
| 20260505221308 | 86 | 353 | 6.0 | 9.0 | 0.00 | 0.00 | 0.00 | 50 | 1002.4 |
| 20260505220807 | 86 | 318 | 5.0 | 13.0 | 0.00 | 0.00 | 0.00 | 50 | 1002.4 |
| 20260505220307 | 87 | 330 | 7.0 | 10.0 | 0.00 | 0.00 | 0.00 | 48 | 1002.3 |
| 20260505215808 | 88 | 316 | 11.0 | 15.0 | 0.00 | 0.00 | 0.00 | 47 | 1002.3 |
| 20260505214807 | 88 | 18 | 6.0 | 10.0 | 0.00 | 0.00 | 0.00 | 48 | 1002.1 |
| 20260505214307 | 89 | 326 | 8.0 | 12.0 | 0.00 | 0.00 | 0.00 | 47 | 1002.1 |
| 20260505213807 | 90 | 355 | 7.0 | 13.0 | 0.00 | 0.00 | 0.00 | 47 | 1002.2 |
| 20260505211807 | 91 | 202 | 7.0 | 7.0 | 0.00 | 0.00 | 0.00 | 48 | 1002.2 |
| 20260505211307 | 91 | 266 | 4.0 | 6.0 | 0.00 | 0.00 | 0.00 | 49 | 1002.4 |
| 20260505205307 | 90 | 207 | 7.0 | 8.0 | 0.00 | 0.00 | 0.00 | 48 | 1002.6 |
| 20260505204807 | 90 | 196 | 6.0 | 8.0 | 0.00 | 0.00 | 0.00 | 50 | 1002.7 |
| 20260505202807 | 90 | 198 | 7.0 | 9.0 | 0.00 | 0.00 | 0.00 | 53 | 1002.8 |
| 20260505202307 | 89 | 206 | 5.0 | 8.0 | 0.00 | 0.00 | 0.00 | 51 | 1002.7 |
| 20260505201307 | 89 | 221 | 6.0 | 9.0 | 0.00 | 0.00 | 0.00 | 51 | 1002.9 |
| 20260505200806 | 89 | 267 | 6.0 | 7.0 | 0.00 | 0.00 | 0.00 | 52 | 1002.9 |
| 20260505200307 | 89 | 246 | 7.0 | 9.0 | 0.00 | 0.00 | 0.00 | 51 | 1003.1 |
| 20260505195807 | 88 | 275 | 7.0 | 9.0 | 0.00 | 0.00 | 0.00 | 53 | 1003.1 |
| 20260505195306 | 88 | 243 | 9.0 | 12.0 | 0.00 | 0.00 | 0.00 | 51 | 1003.2 |
| 20260505194807 | 88 | 251 | 7.0 | 12.0 | 0.00 | 0.00 | 0.00 | 52 | 1003.2 |
| 20260505193807 | 88 | 211 | 9.0 | 13.0 | 0.00 | 0.00 | 0.00 | 51 | 1003.3 |
| 20260505193307 | 89 | 216 | 5.0 | 10.0 | 0.00 | 0.00 | 0.00 | 54 | 1003.2 |
| 20260505192807 | 89 | 176 | 10.0 | 13.0 | 0.00 | 0.00 | 0.00 | 55 | 1003.2 |
| 20260505192310 | 88 | 169 | 5.0 | 10.0 | 0.00 | 0.00 | 0.00 | 55 | 1003.1 |
| 20260505191806 | 88 | 200 | 12.0 | 18.0 | 0.00 | 0.00 | 0.00 | 58 | 1003.2 |
| 20260505191307 | 88 | 220 | 6.0 | 8.0 | 0.00 | 0.00 | 0.00 | 55 | 1003.3 |
| 20260505190807 | 87 | 191 | 7.0 | 9.0 | 0.00 | 0.00 | 0.00 | 57 | 1003.1 |
| 20260505190307 | 87 | 199 | 8.0 | 12.0 | 0.00 | 0.00 | 0.00 | 57 | 1003.2 |
| 20260505185807 | 87 | 195 | 9.0 | 13.0 | 0.00 | 0.00 | 0.00 | 56 | 1003.2 |